Location: Alma
(38.7220°N, 88.9090°W)
Time: 09:23:24
(UTC-06:00)

Vanguard 2 - Pass Details

Date: 20 November 2019
Orbit: 553 x 2938 km, 32.9° (Epoch: 08 December)

Event Time Altitude Azimuth Distance (km) Brightness Sun altitude
Rises 06:31:28 0° 225° (SW) 6,292 12.0 -2.9°
Reaches altitude 10° 06:36:35 10° 218° (SW) 4,955 11.5 -2.0°
Maximum altitude 06:47:53 34° 160° (SSE) 2,545 10.8 0.0°
Drops below altitude 10° 06:55:18 10° 99° (E) 3,235 12.4 1.3°
Sets 06:57:53 0° 89° (E) 3,923 12.4 1.7°
